Aérodrome :
LOGIN :

S'inscrire | Disclaimer

   EN    FR    IT 

 










Légende :    VFR   VFR Marginal   IFR   IFR Intensif   IFR Très Intensif
Visi : 
Plafond : 
>= 8 km
>= 3000ft
5 à 8 km
1000 à 3000 ft
1500m à 5 km
500 à 1000 ft
800 à 1500m
200 à 500 ft
< 800m
< 200 ft
Symboles :   Orages  Brouillard  Fortes neiges  Fortes précipitations  Vent > 20 kt
SIGMETs :   Divers  Orages  Givrage  Turbulence  Onde Orograph.  Cendres Volcan.







- Altitude de l'aérodrome : 1411 ft
- Code IATA : ZHI


LSZG - Grenchen

DERNIER METAR :
  • 210920Z 22005KT 180V250 CAVOK 21/14 Q1016 NOSIG

METARs EXPIRÉS :
  • 210850Z 22004KT CAVOK 20/14 Q1016 NOSIG
  • 210820Z VRB02KT CAVOK 18/15 Q1016 NOSIG
  • 210750Z AUTO VRB02KT CAVOK 17/14 Q1016
  • 210720Z VRB02KT CAVOK 16/14 Q1016 NOSIG
  • 210650Z VRB02KT CAVOK 15/13 Q1016 NOSIG
  • 210620Z AUTO 25002KT 9000 NCD 13/13 Q1016

TAF TAF LSZG
Valide du 21 à 09h jusqu'au 21 à 18h UTC


210825Z 2109/2118 VRB02KT CAVOK
BECMG 2109/2111 25012KT 9999 FEW060 BKN150
BECMG 2111/2113 25015G25KT
TEMPO 2113/2118 28018G32KT SHRA FEW025TCU
ATIS : +41 32 396 96 33
Pas de NOTAMs connus pour ce terrain.



MET'MAP, la Météo Aéronautique d'un coup d'oeil ! - Copyright ORBIFLY Décembre 2007 - Disclaimer

ORBIFLY MET'MAP TEAM :

Programmation & Développement : Alexandra Zaïnal
Conception & Développement : Baudouin d'Aumeries
Co-Programmation & Développement : Marc-Olivier Méhu
Soutien technique & logistique : Manuel Goepfert

Contact : metmap@orbifly.com




SOURCES & CREDITS :

   NOAA